GPS BIIF-9

Last updated on Sat Jun 27 2026 00:02:55 GMT+0000 (Coordinated Universal Time)

1 40534U 15013A 26177.03735334 .00000087 00000+0 00000+0 0 9990 2 40534 53.1674 203.8114 0109747 40.1916 320.6840 2.00550980 82004
UTC large
Height (km)
Speed (km/s)
/
Latitude / Longitude
Inclination (degrees)
Orbital Period (minutes)
Azimuth
Elevation
Range (km)
Doppler Factor

Next 0 passes for location: London (51.5072 / 0.1276)

No passes found over London.
GPS BIIF-9